Year,Month,Day,Hour,Minute,Value (Times are PST for temperature in C)
2002,06,26,00,00,17.30
2002,06,26,00,01,17.30
2002,06,26,00,02,17.30
2002,06,26,00,03,17.30
2002,06,26,00,04,17.30
2002,06,26,00,05,17.30
2002,06,26,00,06,17.30
2002,06,26,00,07,17.30
2002,06,26,00,08,17.30
2002,06,26,00,09,17.30
2002,06,26,00,10,17.30
2002,06,26,00,11,17.30
2002,06,26,00,12,17.30
2002,06,26,00,13,17.20
2002,06,26,00,14,17.20
2002,06,26,00,15,17.20
2002,06,26,00,16,17.20
2002,06,26,00,17,17.20
2002,06,26,00,18,17.20
2002,06,26,00,19,17.30
2002,06,26,00,20,17.30
2002,06,26,00,21,17.30
2002,06,26,00,22,17.30
2002,06,26,00,23,17.30
2002,06,26,00,24,17.30
2002,06,26,00,25,17.30
2002,06,26,00,26,17.30
2002,06,26,00,27,17.30
2002,06,26,00,28,17.40
2002,06,26,00,29,17.40
2002,06,26,00,30,17.50
2002,06,26,00,31,17.50
2002,06,26,00,32,17.60
2002,06,26,00,33,17.70
2002,06,26,00,34,17.70
2002,06,26,00,35,17.80
2002,06,26,00,36,17.80
2002,06,26,00,37,17.80
2002,06,26,00,38,17.90
2002,06,26,00,39,17.90
2002,06,26,00,40,17.90
2002,06,26,00,41,17.90
2002,06,26,00,42,17.90
2002,06,26,00,43,17.90
2002,06,26,00,44,17.90
2002,06,26,00,45,17.90
2002,06,26,00,46,17.90
2002,06,26,00,47,17.90
2002,06,26,00,48,17.90
2002,06,26,00,49,17.90
2002,06,26,00,50,17.90
2002,06,26,00,51,17.90
2002,06,26,00,52,17.90
2002,06,26,00,53,17.90
2002,06,26,00,54,17.90
2002,06,26,00,55,17.90
2002,06,26,00,56,17.90
2002,06,26,00,57,17.90
2002,06,26,00,58,17.90
2002,06,26,00,59,17.90
2002,06,26,01,00,17.90
2002,06,26,01,01,17.90
2002,06,26,01,02,17.90
2002,06,26,01,03,17.90
2002,06,26,01,04,17.90
2002,06,26,01,05,17.90
2002,06,26,01,06,17.90
2002,06,26,01,07,17.90
2002,06,26,01,08,17.80
2002,06,26,01,09,17.80
2002,06,26,01,10,17.70
2002,06,26,01,11,17.70
2002,06,26,01,12,17.60
2002,06,26,01,13,17.60
2002,06,26,01,14,17.60
2002,06,26,01,15,17.60
2002,06,26,01,16,17.60
2002,06,26,01,17,17.60
2002,06,26,01,18,17.60
2002,06,26,01,19,17.60
2002,06,26,01,20,17.60
2002,06,26,01,21,17.70
2002,06,26,01,22,17.70
2002,06,26,01,23,17.70
2002,06,26,01,24,17.70
2002,06,26,01,25,17.70
2002,06,26,01,26,17.60
2002,06,26,01,27,17.50
2002,06,26,01,28,17.50
2002,06,26,01,29,17.30
2002,06,26,01,30,17.30
2002,06,26,01,31,17.30
2002,06,26,01,32,17.20
2002,06,26,01,33,17.20
2002,06,26,01,34,17.10
2002,06,26,01,35,17.10
2002,06,26,01,36,17.10
2002,06,26,01,37,17.00
2002,06,26,01,38,17.00
2002,06,26,01,39,16.90
2002,06,26,01,40,16.80
2002,06,26,01,41,16.80
2002,06,26,01,42,16.70
2002,06,26,01,43,16.70
2002,06,26,01,44,16.70
2002,06,26,01,45,16.70
2002,06,26,01,46,16.70
2002,06,26,01,47,16.70
2002,06,26,01,48,16.70
2002,06,26,01,49,16.70
2002,06,26,01,50,16.70
2002,06,26,01,51,16.70
2002,06,26,01,52,16.70
2002,06,26,01,53,16.70
2002,06,26,01,54,16.70
2002,06,26,01,55,16.70
2002,06,26,01,56,16.70
2002,06,26,01,57,16.70
2002,06,26,01,58,16.60
2002,06,26,01,59,16.60
2002,06,26,02,00,16.60
2002,06,26,02,01,16.60
2002,06,26,02,02,16.50
2002,06,26,02,03,16.40
2002,06,26,02,04,16.40
2002,06,26,02,05,16.40
2002,06,26,02,06,16.30
2002,06,26,02,07,16.30
2002,06,26,02,08,16.30
2002,06,26,02,09,16.40
2002,06,26,02,10,16.40
2002,06,26,02,11,16.40
2002,06,26,02,12,16.40
2002,06,26,02,13,16.40
2002,06,26,02,14,16.30
2002,06,26,02,15,16.30
2002,06,26,02,16,16.30
2002,06,26,02,17,16.30
2002,06,26,02,18,16.30
2002,06,26,02,19,16.30
2002,06,26,02,20,16.30
2002,06,26,02,21,16.20
2002,06,26,02,22,16.20
2002,06,26,02,23,16.20
2002,06,26,02,24,16.20
2002,06,26,02,25,16.20
2002,06,26,02,26,16.10
2002,06,26,02,27,16.10
2002,06,26,02,28,16.10
2002,06,26,02,29,16.10
2002,06,26,02,30,16.20
2002,06,26,02,31,16.20
2002,06,26,02,32,16.20
2002,06,26,02,33,16.20
2002,06,26,02,34,16.20
2002,06,26,02,35,16.20
2002,06,26,02,36,16.10
2002,06,26,02,37,16.10
2002,06,26,02,38,16.10
2002,06,26,02,39,16.10
2002,06,26,02,40,16.10
2002,06,26,02,41,16.10
2002,06,26,02,42,16.00
2002,06,26,02,43,15.90
2002,06,26,02,44,15.90
2002,06,26,02,45,15.80
2002,06,26,02,46,15.80
2002,06,26,02,47,15.80
2002,06,26,02,48,15.80
2002,06,26,02,49,15.80
2002,06,26,02,50,15.80
2002,06,26,02,51,15.70
2002,06,26,02,52,15.60
2002,06,26,02,53,15.50
2002,06,26,02,54,15.50
2002,06,26,02,55,15.30
2002,06,26,02,56,15.20
2002,06,26,02,57,15.00
2002,06,26,02,58,14.90
2002,06,26,02,59,14.60
2002,06,26,03,00,14.40
2002,06,26,03,01,14.10
2002,06,26,03,02,14.00
2002,06,26,03,03,13.80
2002,06,26,03,04,13.60
2002,06,26,03,05,13.30
2002,06,26,03,06,13.10
2002,06,26,03,07,12.90
2002,06,26,03,08,12.80
2002,06,26,03,09,12.60
2002,06,26,03,10,12.60
2002,06,26,03,11,12.50
2002,06,26,03,12,12.40
2002,06,26,03,13,12.40
2002,06,26,03,14,12.40
2002,06,26,03,15,12.30
2002,06,26,03,16,12.30
2002,06,26,03,17,12.40
2002,06,26,03,18,12.40
2002,06,26,03,19,12.40
2002,06,26,03,20,12.40
2002,06,26,03,21,12.40
2002,06,26,03,22,12.50
2002,06,26,03,23,12.50
2002,06,26,03,24,12.60
2002,06,26,03,25,12.60
2002,06,26,03,26,12.60
2002,06,26,03,27,12.70
2002,06,26,03,28,12.70
2002,06,26,03,29,12.70
2002,06,26,03,30,12.70
2002,06,26,03,31,12.70
2002,06,26,03,32,12.80
2002,06,26,03,33,12.70
2002,06,26,03,34,12.70
2002,06,26,03,35,12.80
2002,06,26,03,36,12.80
2002,06,26,03,37,12.70
2002,06,26,03,38,12.70
2002,06,26,03,39,12.70
2002,06,26,03,40,12.70
2002,06,26,03,41,12.60
2002,06,26,03,42,12.60
2002,06,26,03,43,12.60
2002,06,26,03,44,12.60
2002,06,26,03,45,12.60
2002,06,26,03,46,12.60
2002,06,26,03,47,12.60
2002,06,26,03,48,12.60
2002,06,26,03,49,12.60
2002,06,26,03,50,12.60
2002,06,26,03,51,12.60
2002,06,26,03,52,12.60
2002,06,26,03,53,12.60
2002,06,26,03,54,12.70
2002,06,26,03,55,12.70
2002,06,26,03,56,12.70
2002,06,26,03,57,12.80
2002,06,26,03,58,12.80
2002,06,26,03,59,12.80
2002,06,26,04,00,12.80
2002,06,26,04,01,12.80
2002,06,26,04,02,12.80
2002,06,26,04,03,12.80
2002,06,26,04,04,12.80
2002,06,26,04,05,12.90
2002,06,26,04,06,13.00
2002,06,26,04,07,13.00
2002,06,26,04,08,13.00
2002,06,26,04,09,13.00
2002,06,26,04,10,13.10
2002,06,26,04,11,13.10
2002,06,26,04,12,13.10
2002,06,26,04,13,13.20
2002,06,26,04,14,13.20
2002,06,26,04,15,13.30
2002,06,26,04,16,13.30
2002,06,26,04,17,13.30
2002,06,26,04,18,13.30
2002,06,26,04,19,13.30
2002,06,26,04,20,13.30
2002,06,26,04,21,13.30
2002,06,26,04,22,13.30
2002,06,26,04,23,13.30
2002,06,26,04,24,13.30
2002,06,26,04,25,13.30
2002,06,26,04,26,13.30
2002,06,26,04,27,13.30
2002,06,26,04,28,13.30
2002,06,26,04,29,13.30
2002,06,26,04,30,13.30
2002,06,26,04,31,13.30
2002,06,26,04,32,13.30
2002,06,26,04,33,13.30
2002,06,26,04,34,13.20
2002,06,26,04,35,13.20
2002,06,26,04,36,13.20
2002,06,26,04,37,13.20
2002,06,26,04,38,13.10
2002,06,26,04,39,13.10
2002,06,26,04,40,13.10
2002,06,26,04,41,13.10
2002,06,26,04,42,13.10
2002,06,26,04,43,13.10
2002,06,26,04,44,13.10
2002,06,26,04,45,13.10
2002,06,26,04,46,13.20
2002,06,26,04,47,13.20
2002,06,26,04,48,13.20
2002,06,26,04,49,13.20
2002,06,26,04,50,13.20
2002,06,26,04,51,13.30
2002,06,26,04,52,13.30
2002,06,26,04,53,13.40
2002,06,26,04,54,13.40
2002,06,26,04,55,13.40
2002,06,26,04,56,13.40
2002,06,26,04,57,13.50
2002,06,26,04,58,13.50
2002,06,26,04,59,13.50
2002,06,26,05,00,13.60
2002,06,26,05,01,13.60
2002,06,26,05,02,13.70
2002,06,26,05,03,13.70
2002,06,26,05,04,13.70
2002,06,26,05,05,13.70
2002,06,26,05,06,13.70
2002,06,26,05,07,13.70
2002,06,26,05,08,13.80
2002,06,26,05,09,13.80
2002,06,26,05,10,13.80
2002,06,26,05,11,13.90
2002,06,26,05,12,13.90
2002,06,26,05,13,13.80
2002,06,26,05,14,13.80
2002,06,26,05,15,13.80
2002,06,26,05,16,13.80
2002,06,26,05,17,13.90
2002,06,26,05,18,13.90
2002,06,26,05,19,13.90
2002,06,26,05,20,14.00
2002,06,26,05,21,14.00
2002,06,26,05,22,14.00
2002,06,26,05,23,14.00
2002,06,26,05,24,14.10
2002,06,26,05,25,14.10
2002,06,26,05,26,14.10
2002,06,26,05,27,14.20
2002,06,26,05,28,14.20
2002,06,26,05,29,14.20
2002,06,26,05,30,14.20
2002,06,26,05,31,14.20
2002,06,26,05,32,14.20
2002,06,26,05,33,14.20
2002,06,26,05,34,14.20
2002,06,26,05,35,14.20
2002,06,26,05,36,14.20
2002,06,26,05,37,14.20
2002,06,26,05,38,14.20
2002,06,26,05,39,14.20
2002,06,26,05,40,14.30
2002,06,26,05,41,14.30
2002,06,26,05,42,14.40
2002,06,26,05,43,14.50
2002,06,26,05,44,14.50
2002,06,26,05,45,14.60
2002,06,26,05,46,14.60
2002,06,26,05,47,14.70
2002,06,26,05,48,14.80
2002,06,26,05,49,14.80
2002,06,26,05,50,14.80
2002,06,26,05,51,14.80
2002,06,26,05,52,14.80
2002,06,26,05,53,14.90
2002,06,26,05,54,14.90
2002,06,26,05,55,15.00
2002,06,26,05,56,15.00
2002,06,26,05,57,15.00
2002,06,26,05,58,15.10
2002,06,26,05,59,15.10
2002,06,26,06,00,15.10
2002,06,26,06,01,15.10
2002,06,26,06,02,15.10
2002,06,26,06,03,15.20
2002,06,26,06,04,15.20
2002,06,26,06,05,15.30
2002,06,26,06,06,15.30
2002,06,26,06,07,15.30
2002,06,26,06,08,15.30
2002,06,26,06,09,15.40
2002,06,26,06,10,15.50
2002,06,26,06,11,15.50
2002,06,26,06,12,15.60
2002,06,26,06,13,15.60
2002,06,26,06,14,15.70
2002,06,26,06,15,15.70
2002,06,26,06,16,15.80
2002,06,26,06,17,15.80
2002,06,26,06,18,15.80
2002,06,26,06,19,15.90
2002,06,26,06,20,15.90
2002,06,26,06,21,15.90
2002,06,26,06,22,16.00
2002,06,26,06,23,16.10
2002,06,26,06,24,16.10
2002,06,26,06,25,16.10
2002,06,26,06,26,16.00
2002,06,26,06,27,15.90
2002,06,26,06,28,15.80
2002,06,26,06,29,15.70
2002,06,26,06,30,15.50
2002,06,26,06,31,15.40
2002,06,26,06,32,15.20
2002,06,26,06,33,15.10
2002,06,26,06,34,15.00
2002,06,26,06,35,14.80
2002,06,26,06,36,14.60
2002,06,26,06,37,14.50
2002,06,26,06,38,14.40
2002,06,26,06,39,14.30
2002,06,26,06,40,14.20
2002,06,26,06,41,14.20
2002,06,26,06,42,14.10
2002,06,26,06,43,14.10
2002,06,26,06,44,14.10
2002,06,26,06,45,14.00
2002,06,26,06,46,14.00
2002,06,26,06,47,14.00
2002,06,26,06,48,14.00
2002,06,26,06,49,13.90
2002,06,26,06,50,13.90
2002,06,26,06,51,13.80
2002,06,26,06,52,13.80
2002,06,26,06,53,13.80
2002,06,26,06,54,13.80
2002,06,26,06,55,13.80
2002,06,26,06,56,13.70
2002,06,26,06,57,13.70
2002,06,26,06,58,13.70
2002,06,26,06,59,13.70
2002,06,26,07,00,13.70
2002,06,26,07,01,13.70
2002,06,26,07,02,13.70
2002,06,26,07,03,13.80
2002,06,26,07,04,13.80
2002,06,26,07,05,13.80
2002,06,26,07,06,13.80
2002,06,26,07,07,13.80
2002,06,26,07,08,13.80
2002,06,26,07,09,13.90
2002,06,26,07,10,13.90
2002,06,26,07,11,14.00
2002,06,26,07,12,14.00
2002,06,26,07,13,14.00
2002,06,26,07,14,14.10
2002,06,26,07,15,14.10
2002,06,26,07,16,14.10
2002,06,26,07,17,14.10
2002,06,26,07,18,14.20
2002,06,26,07,19,14.20
2002,06,26,07,20,14.20
2002,06,26,07,21,14.30
2002,06,26,07,22,14.30
2002,06,26,07,23,14.40
2002,06,26,07,24,14.50
2002,06,26,07,25,14.60
2002,06,26,07,26,14.70
2002,06,26,07,27,14.80
2002,06,26,07,28,14.80
2002,06,26,07,29,14.90
2002,06,26,07,30,14.90
2002,06,26,07,31,15.00
2002,06,26,07,32,15.20
2002,06,26,07,33,15.30
2002,06,26,07,34,15.50
2002,06,26,07,35,15.60
2002,06,26,07,36,15.80
2002,06,26,07,37,16.00
2002,06,26,07,38,16.20
2002,06,26,07,39,16.30
2002,06,26,07,40,16.50
2002,06,26,07,41,16.70
2002,06,26,07,42,16.90
2002,06,26,07,43,17.00
2002,06,26,07,44,17.10
2002,06,26,07,45,17.20
2002,06,26,07,46,17.40
2002,06,26,07,47,17.60
2002,06,26,07,48,17.80
2002,06,26,07,49,17.90
2002,06,26,07,50,17.90
2002,06,26,07,51,17.90
2002,06,26,07,52,17.80
2002,06,26,07,53,17.80
2002,06,26,07,54,17.70
2002,06,26,07,55,17.70
2002,06,26,07,56,17.80
2002,06,26,07,57,17.80
2002,06,26,07,58,17.90
2002,06,26,07,59,17.90
2002,06,26,08,00,18.00
2002,06,26,08,01,18.10
2002,06,26,08,02,18.00
2002,06,26,08,03,17.90
2002,06,26,08,04,17.80
2002,06,26,08,05,17.80
2002,06,26,08,06,17.90
2002,06,26,08,07,17.90
2002,06,26,08,08,18.20
2002,06,26,08,09,18.30
2002,06,26,08,10,18.30
2002,06,26,08,11,18.30
2002,06,26,08,12,18.30
2002,06,26,08,13,18.40
2002,06,26,08,14,18.50
2002,06,26,08,15,18.60
2002,06,26,08,16,18.70
2002,06,26,08,17,18.70
2002,06,26,08,18,18.80
2002,06,26,08,19,18.90
2002,06,26,08,20,18.90
2002,06,26,08,21,18.90
2002,06,26,08,22,18.90
2002,06,26,08,23,19.00
2002,06,26,08,24,19.10
2002,06,26,08,25,19.20
2002,06,26,08,26,19.20
2002,06,26,08,27,19.20
2002,06,26,08,28,19.30
2002,06,26,08,29,19.30
2002,06,26,08,30,19.40
2002,06,26,08,31,19.30
2002,06,26,08,32,19.30
2002,06,26,08,33,19.40
2002,06,26,08,34,19.40
2002,06,26,08,35,19.60
2002,06,26,08,36,19.70
2002,06,26,08,37,19.90
2002,06,26,08,38,20.10
2002,06,26,08,39,20.20
2002,06,26,08,40,20.10
2002,06,26,08,41,20.00
2002,06,26,08,42,19.90
2002,06,26,08,43,19.80
2002,06,26,08,44,19.70
2002,06,26,08,45,19.80
2002,06,26,08,46,20.00
2002,06,26,08,47,20.00
2002,06,26,08,48,19.90
2002,06,26,08,49,20.00
2002,06,26,08,50,20.20
2002,06,26,08,51,20.20
2002,06,26,08,52,20.00
2002,06,26,08,53,19.90
2002,06,26,08,54,19.90
2002,06,26,08,55,19.80
2002,06,26,08,56,19.80
2002,06,26,08,57,19.70
2002,06,26,08,58,19.60
2002,06,26,08,59,19.60
2002,06,26,09,00,19.60
2002,06,26,09,01,19.60
2002,06,26,09,02,19.50
2002,06,26,09,03,19.30
2002,06,26,09,04,19.10
2002,06,26,09,05,19.10
2002,06,26,09,06,19.00
2002,06,26,09,07,18.90
2002,06,26,09,08,18.90
2002,06,26,09,09,18.80
2002,06,26,09,10,18.60
2002,06,26,09,11,18.50
2002,06,26,09,12,18.40
2002,06,26,09,13,18.30
2002,06,26,09,14,18.10
2002,06,26,09,15,17.90
2002,06,26,09,16,17.70
2002,06,26,09,17,17.50
2002,06,26,09,18,17.40
2002,06,26,09,19,17.40
2002,06,26,09,20,17.30
2002,06,26,09,21,17.30
2002,06,26,09,22,17.20
2002,06,26,09,23,17.20
2002,06,26,09,24,17.20
2002,06,26,09,25,17.30
2002,06,26,09,26,17.40
2002,06,26,09,27,17.30
2002,06,26,09,28,17.30
2002,06,26,09,29,17.50
2002,06,26,09,30,17.50
2002,06,26,09,31,17.60
2002,06,26,09,32,17.50
2002,06,26,09,33,17.50
2002,06,26,09,34,17.50
2002,06,26,09,35,17.50
2002,06,26,09,36,17.60
2002,06,26,09,37,17.70
2002,06,26,09,38,17.80
2002,06,26,09,39,18.00
2002,06,26,09,40,18.10
2002,06,26,09,41,18.20
2002,06,26,09,42,18.20
2002,06,26,09,43,18.10
2002,06,26,09,44,18.10
2002,06,26,09,45,18.10
2002,06,26,09,46,18.10
2002,06,26,09,47,18.20
2002,06,26,09,48,18.20
2002,06,26,09,49,18.20
2002,06,26,09,50,18.30
2002,06,26,09,51,18.60
2002,06,26,09,52,18.80
2002,06,26,09,53,18.80
2002,06,26,09,54,18.70
2002,06,26,09,55,18.80
2002,06,26,09,56,18.90
2002,06,26,09,57,19.00
2002,06,26,09,58,19.10
2002,06,26,09,59,19.10
2002,06,26,10,00,19.20
2002,06,26,10,01,19.40
2002,06,26,10,02,19.40
2002,06,26,10,03,19.50
2002,06,26,10,04,19.60
2002,06,26,10,05,19.60
2002,06,26,10,06,19.60
2002,06,26,10,07,19.80
2002,06,26,10,08,20.00
2002,06,26,10,09,20.10
2002,06,26,10,10,20.00
2002,06,26,10,11,20.00
2002,06,26,10,12,20.10
2002,06,26,10,13,20.20
2002,06,26,10,14,20.20
2002,06,26,10,15,20.20
2002,06,26,10,16,20.20
2002,06,26,10,17,20.30
2002,06,26,10,18,20.30
2002,06,26,10,19,20.60
2002,06,26,10,20,20.80
2002,06,26,10,21,20.90
2002,06,26,10,22,21.00
2002,06,26,10,23,20.90
2002,06,26,10,24,20.90
2002,06,26,10,25,20.90
2002,06,26,10,26,20.90
2002,06,26,10,27,20.90
2002,06,26,10,28,21.00
2002,06,26,10,29,21.20
2002,06,26,10,30,21.10
2002,06,26,10,31,21.20
2002,06,26,10,32,21.10
2002,06,26,10,33,21.00
2002,06,26,10,34,21.00
2002,06,26,10,35,21.00
2002,06,26,10,36,21.10
2002,06,26,10,37,21.20
2002,06,26,10,38,21.10
2002,06,26,10,39,21.10
2002,06,26,10,40,21.20
2002,06,26,10,41,21.30
2002,06,26,10,42,21.50
2002,06,26,10,43,21.60
2002,06,26,10,44,21.60
2002,06,26,10,45,21.60
2002,06,26,10,46,21.70
2002,06,26,10,47,21.60
2002,06,26,10,48,21.60
2002,06,26,10,49,21.70
2002,06,26,10,50,21.70
2002,06,26,10,51,21.60
2002,06,26,10,52,21.60
2002,06,26,10,53,21.60
2002,06,26,10,54,21.60
2002,06,26,10,55,21.60
2002,06,26,10,56,21.50
2002,06,26,10,57,21.40
2002,06,26,10,58,21.40
2002,06,26,10,59,21.60
2002,06,26,11,00,21.60
2002,06,26,11,01,21.90
2002,06,26,11,02,21.90
2002,06,26,11,03,21.80
2002,06,26,11,04,21.80
2002,06,26,11,05,21.80
2002,06,26,11,06,21.80
2002,06,26,11,07,21.80
2002,06,26,11,08,21.70
2002,06,26,11,09,21.90
2002,06,26,11,10,22.00
2002,06,26,11,11,22.00
2002,06,26,11,12,21.90
2002,06,26,11,13,22.00
2002,06,26,11,14,22.20
2002,06,26,11,15,22.10
2002,06,26,11,16,22.20
2002,06,26,11,17,22.20
2002,06,26,11,18,22.20
2002,06,26,11,19,22.20
2002,06,26,11,20,22.10
2002,06,26,11,21,22.00
2002,06,26,11,22,22.20
2002,06,26,11,23,22.30
2002,06,26,11,24,22.50
2002,06,26,11,25,22.60
2002,06,26,11,26,22.80
2002,06,26,11,27,22.90
2002,06,26,11,28,22.90
2002,06,26,11,29,22.90
2002,06,26,11,30,23.00
2002,06,26,11,31,22.90
2002,06,26,11,32,23.00
2002,06,26,11,33,23.20
2002,06,26,11,34,23.40
2002,06,26,11,35,23.50
2002,06,26,11,36,23.60
2002,06,26,11,37,23.60
2002,06,26,11,38,23.50
2002,06,26,11,39,23.50
2002,06,26,11,40,23.60
2002,06,26,11,41,23.40
2002,06,26,11,42,23.30
2002,06,26,11,43,23.40
2002,06,26,11,44,23.40
2002,06,26,11,45,23.30
2002,06,26,11,46,23.30
2002,06,26,11,47,23.50
2002,06,26,11,48,23.70
2002,06,26,11,49,23.90
2002,06,26,11,50,24.10
2002,06,26,11,51,24.20
2002,06,26,11,52,24.20
2002,06,26,11,53,24.00
2002,06,26,11,54,23.90
2002,06,26,11,55,23.90
2002,06,26,11,56,23.90
2002,06,26,11,57,24.00
2002,06,26,11,58,24.10
2002,06,26,11,59,23.90
2002,06,26,12,00,23.60
2002,06,26,12,01,23.30
2002,06,26,12,02,23.10
2002,06,26,12,03,23.00
2002,06,26,12,04,22.80
2002,06,26,12,05,22.70
2002,06,26,12,06,22.60
2002,06,26,12,07,22.40
2002,06,26,12,08,22.50
2002,06,26,12,09,22.60
2002,06,26,12,10,22.80
2002,06,26,12,11,22.80
2002,06,26,12,12,22.90
2002,06,26,12,13,22.90
2002,06,26,12,14,22.90
2002,06,26,12,15,22.90
2002,06,26,12,16,22.90
2002,06,26,12,17,23.00
2002,06,26,12,18,23.10
2002,06,26,12,19,23.30
2002,06,26,12,20,23.30
2002,06,26,12,21,23.40
2002,06,26,12,22,23.60
2002,06,26,12,23,23.70
2002,06,26,12,24,23.90
2002,06,26,12,25,24.10
2002,06,26,12,26,24.40
2002,06,26,12,27,24.60
2002,06,26,12,28,24.80
2002,06,26,12,29,25.00
2002,06,26,12,30,25.00
2002,06,26,12,31,24.80
2002,06,26,12,32,24.90
2002,06,26,12,33,25.20
2002,06,26,12,34,25.40
2002,06,26,12,35,25.60
2002,06,26,12,36,25.90
2002,06,26,12,37,25.90
2002,06,26,12,38,26.00
2002,06,26,12,39,26.30
2002,06,26,12,40,26.50
2002,06,26,12,41,26.70
2002,06,26,12,42,26.70
2002,06,26,12,43,26.40
2002,06,26,12,44,26.40
2002,06,26,12,45,26.30
2002,06,26,12,46,26.20
2002,06,26,12,47,26.40
2002,06,26,12,48,26.60
2002,06,26,12,49,26.70
2002,06,26,12,50,26.70
2002,06,26,12,51,26.70
2002,06,26,12,52,26.60
2002,06,26,12,53,26.50
2002,06,26,12,54,26.60
2002,06,26,12,55,26.70
2002,06,26,12,56,26.60
2002,06,26,12,57,26.60
2002,06,26,12,58,26.40
2002,06,26,12,59,26.50
2002,06,26,13,00,26.70
2002,06,26,13,01,26.90
2002,06,26,13,02,26.80
2002,06,26,13,03,27.00
2002,06,26,13,04,27.20
2002,06,26,13,05,27.40
2002,06,26,13,06,27.60
2002,06,26,13,07,27.90
2002,06,26,13,08,28.10
2002,06,26,13,09,28.20
2002,06,26,13,10,28.20
2002,06,26,13,11,28.30
2002,06,26,13,12,28.30
2002,06,26,13,13,28.30
2002,06,26,13,14,28.30
2002,06,26,13,15,28.20
2002,06,26,13,16,27.90
2002,06,26,13,17,27.70
2002,06,26,13,18,27.70
2002,06,26,13,19,27.70
2002,06,26,13,20,27.70
2002,06,26,13,21,27.70
2002,06,26,13,22,27.80
2002,06,26,13,23,27.80
2002,06,26,13,24,27.90
2002,06,26,13,25,27.90
2002,06,26,13,26,28.00
2002,06,26,13,27,28.00
2002,06,26,13,28,28.00
2002,06,26,13,29,27.80
2002,06,26,13,30,27.60
2002,06,26,13,31,27.50
2002,06,26,13,32,27.60
2002,06,26,13,33,27.80
2002,06,26,13,34,27.70
2002,06,26,13,35,27.80
2002,06,26,13,36,27.70
2002,06,26,13,37,27.70
2002,06,26,13,38,27.80
2002,06,26,13,39,27.70
2002,06,26,13,40,27.60
2002,06,26,13,41,27.50
2002,06,26,13,42,27.50
2002,06,26,13,43,27.60
2002,06,26,13,44,27.60
2002,06,26,13,45,27.70
2002,06,26,13,46,27.70
2002,06,26,13,47,27.80
2002,06,26,13,48,27.80
2002,06,26,13,49,27.60
2002,06,26,13,50,27.60
2002,06,26,13,51,27.70
2002,06,26,13,52,27.70
2002,06,26,13,53,27.70
2002,06,26,13,54,27.60
2002,06,26,13,55,27.70
2002,06,26,13,56,28.00
2002,06,26,13,57,28.30
2002,06,26,13,58,28.60
2002,06,26,13,59,28.90
2002,06,26,14,00,29.00
2002,06,26,14,01,28.90
2002,06,26,14,02,29.10
2002,06,26,14,03,29.10
2002,06,26,14,04,29.20
2002,06,26,14,05,29.10
2002,06,26,14,06,29.30
2002,06,26,14,07,29.30
2002,06,26,14,08,29.20
2002,06,26,14,09,29.00
2002,06,26,14,10,28.90
2002,06,26,14,11,29.00
2002,06,26,14,12,29.10
2002,06,26,14,13,29.30
2002,06,26,14,14,29.40
2002,06,26,14,15,29.60
2002,06,26,14,16,29.80
2002,06,26,14,17,30.10
2002,06,26,14,18,30.30
2002,06,26,14,19,30.70
2002,06,26,14,20,30.70
2002,06,26,14,21,30.90
2002,06,26,14,22,30.90
2002,06,26,14,23,30.70
2002,06,26,14,24,30.10
2002,06,26,14,25,29.80
2002,06,26,14,26,29.40
2002,06,26,14,27,29.00
2002,06,26,14,28,29.00
2002,06,26,14,29,29.10
2002,06,26,14,30,29.10
2002,06,26,14,31,29.20
2002,06,26,14,32,29.30
2002,06,26,14,33,29.40
2002,06,26,14,34,29.50
2002,06,26,14,35,29.60
2002,06,26,14,36,29.40
2002,06,26,14,37,29.50
2002,06,26,14,38,29.50
2002,06,26,14,39,29.50
2002,06,26,14,40,29.50
2002,06,26,14,41,29.20
2002,06,26,14,42,29.00
2002,06,26,14,43,29.00
2002,06,26,14,44,29.00
2002,06,26,14,45,29.00
2002,06,26,14,46,29.10
2002,06,26,14,47,29.20
2002,06,26,14,48,29.10
2002,06,26,14,49,29.20
2002,06,26,14,50,29.40
2002,06,26,14,51,29.40
2002,06,26,14,52,29.60
2002,06,26,14,53,29.70
2002,06,26,14,54,29.80
2002,06,26,14,55,29.90
2002,06,26,14,56,29.90
2002,06,26,14,57,29.90
2002,06,26,14,58,29.90
2002,06,26,14,59,29.60
2002,06,26,15,00,29.60
2002,06,26,15,01,29.60
2002,06,26,15,02,29.50
2002,06,26,15,03,29.60
2002,06,26,15,04,29.50
2002,06,26,15,05,29.50
2002,06,26,15,06,29.40
2002,06,26,15,07,29.50
2002,06,26,15,08,29.40
2002,06,26,15,09,29.40
2002,06,26,15,10,29.20
2002,06,26,15,11,29.10
2002,06,26,15,12,28.90
2002,06,26,15,13,28.90
2002,06,26,15,14,28.90
2002,06,26,15,15,29.10
2002,06,26,15,16,29.10
2002,06,26,15,17,29.30
2002,06,26,15,18,29.50
2002,06,26,15,19,29.60
2002,06,26,15,20,29.70
2002,06,26,15,21,29.80
2002,06,26,15,22,29.70
2002,06,26,15,23,29.80
2002,06,26,15,24,29.70
2002,06,26,15,25,29.70
2002,06,26,15,26,29.70
2002,06,26,15,27,29.60
2002,06,26,15,28,29.80
2002,06,26,15,29,30.00
2002,06,26,15,30,30.00
2002,06,26,15,31,30.20
2002,06,26,15,32,30.10
2002,06,26,15,33,30.00
2002,06,26,15,34,29.90
2002,06,26,15,35,29.90
2002,06,26,15,36,29.90
2002,06,26,15,37,29.90
2002,06,26,15,38,30.00
2002,06,26,15,39,30.30
2002,06,26,15,40,30.40
2002,06,26,15,41,30.30
2002,06,26,15,42,30.30
2002,06,26,15,43,30.00
2002,06,26,15,44,29.90
2002,06,26,15,45,30.10
2002,06,26,15,46,30.40
2002,06,26,15,47,30.40
2002,06,26,15,48,30.40
2002,06,26,15,49,30.50
2002,06,26,15,50,30.40
2002,06,26,15,51,30.30
2002,06,26,15,52,30.40
2002,06,26,15,53,30.30
2002,06,26,15,54,30.20
2002,06,26,15,55,30.10
2002,06,26,15,56,30.10
2002,06,26,15,57,30.10
2002,06,26,15,58,30.20
2002,06,26,15,59,30.10
2002,06,26,16,00,29.90
2002,06,26,16,01,29.90
2002,06,26,16,02,29.60
2002,06,26,16,03,29.80
2002,06,26,16,04,29.80
2002,06,26,16,05,29.60
2002,06,26,16,06,29.70
2002,06,26,16,07,29.70
2002,06,26,16,08,29.70
2002,06,26,16,09,29.80
2002,06,26,16,10,29.80
2002,06,26,16,11,29.80
2002,06,26,16,12,30.00
2002,06,26,16,13,30.10
2002,06,26,16,14,30.10
2002,06,26,16,15,30.10
2002,06,26,16,16,30.10
2002,06,26,16,17,30.10
2002,06,26,16,18,30.20
2002,06,26,16,19,30.10
2002,06,26,16,20,30.20
2002,06,26,16,21,30.30
2002,06,26,16,22,30.10
2002,06,26,16,23,30.10
2002,06,26,16,24,30.20
2002,06,26,16,25,30.10
2002,06,26,16,26,30.10
2002,06,26,16,27,29.90
2002,06,26,16,28,30.00
2002,06,26,16,29,30.00
2002,06,26,16,30,30.10
2002,06,26,16,31,30.10
2002,06,26,16,32,30.00
2002,06,26,16,33,30.00
2002,06,26,16,34,30.10
2002,06,26,16,35,30.00
2002,06,26,16,36,30.10
2002,06,26,16,37,30.20
2002,06,26,16,38,30.30
2002,06,26,16,39,30.30
2002,06,26,16,40,30.50
2002,06,26,16,41,30.50
2002,06,26,16,42,30.40
2002,06,26,16,43,30.40
2002,06,26,16,44,30.50
2002,06,26,16,45,30.40
2002,06,26,16,46,30.50
2002,06,26,16,47,30.60
2002,06,26,16,48,30.70
2002,06,26,16,49,30.80
2002,06,26,16,50,30.50
2002,06,26,16,51,30.30
2002,06,26,16,52,30.10
2002,06,26,16,53,30.20
2002,06,26,16,54,30.20
2002,06,26,16,55,30.10
2002,06,26,16,56,30.00
2002,06,26,16,57,30.00
2002,06,26,16,58,30.10
2002,06,26,16,59,30.30
2002,06,26,17,00,30.10
2002,06,26,17,01,30.10
2002,06,26,17,02,30.30
2002,06,26,17,03,30.30
2002,06,26,17,04,30.40
2002,06,26,17,05,30.40
2002,06,26,17,06,30.40
2002,06,26,17,07,30.40
2002,06,26,17,08,30.50
2002,06,26,17,09,30.60
2002,06,26,17,10,30.60
2002,06,26,17,11,30.50
2002,06,26,17,12,30.60
2002,06,26,17,13,30.70
2002,06,26,17,14,30.70
2002,06,26,17,15,30.80
2002,06,26,17,16,30.60
2002,06,26,17,17,30.70
2002,06,26,17,18,30.60
2002,06,26,17,19,30.50